Beaufort, NC

6:13 PM EST on December 14, 2019 (GMT -0500)
Smith

Weather History for KMRH - October, 2019

Change the Weather History Date:

Tuesday, October 29, 2019

  Actual Average Record
Temperature  
Mean Temperature 72 °F -  
Max Temperature 81 °F 71 °F 79 °F (1950)
Min Temperature 64 °F 51 °F 27 °F (1976)
Cooling Degree Days 7    
Growing Degree Days 22 (Base 50)    
Moisture  
Dew Point 68 °F    
Average Humidity 88    
Maximum Humidity 100    
Minimum Humidity 67    
Precipitation  
Precipitation 0.02 in - - ()
Sea Level Pressure  
Sea Level Pressure 30.17 in    
Wind  
Wind Speed 7 mph (NE)    
Max Wind Speed 10 mph    
Max Gust Speed -    
Visibility 10 miles    
Events Rain    
Averages and records for this station are not official NWS values.
T = Trace of Precipitation, MM = Missing Value Source: NWS Daily Summary

Daily Weather History Graph

Daily Weather History Graph

Search for Another Location

Airport or City:

Astronomy

Oct. 29, 2019 Rise Set
Actual Time 7:24 AM EDT 6:15 PM EDT
Civil Twilight 6:58 AM EDT 6:41 PM EDT
Nautical Twilight 6:28 AM EDT 7:11 PM EDT
Astronomical Twilight 5:59 AM EDT 7:40 PM EDT
Moon 8:53 AM EDT (10/29) 7:42 PM EDT (10/29)
Length of Visible Light 11h 43m
Length of Day
10h 51m
Waxing Crescent, 3% of the Moon is Illuminated
Oct 29
Waxing Crescent
Nov 4
First Quarter
Nov 12
Full
Nov 19
Last Quarter
Nov 26
New

Hourly Weather History & Observations

Time (EDT) Temp. Heat Index Dew Point Humidity Pressure Visibility Wind Dir Wind Speed Gust Speed Precip Events Conditions
12:28 AM 64.0 °F - 62.1 °F 93% 30.14 in 10.0 mi NNE 8.1 mph - N/A   Overcast
12:58 AM 64.9 °F - 63.0 °F 93% 30.14 in 10.0 mi NNE 8.1 mph - N/A   Overcast
1:58 AM 64.9 °F - 64.0 °F 97% 30.14 in 10.0 mi NNE 6.9 mph - N/A   Mostly Cloudy
2:22 AM 64.9 °F - 64.0 °F 97% 30.13 in 10.0 mi NNE 6.9 mph - N/A   Scattered Clouds
2:58 AM 64.9 °F - 64.0 °F 97% 30.14 in 10.0 mi NNE 5.8 mph - N/A   Scattered Clouds
3:58 AM 66.0 °F - 64.0 °F 93% 30.14 in 10.0 mi NNE 5.8 mph - N/A   Partly Cloudy
4:58 AM 66.0 °F - 64.9 °F 96% 30.14 in 10.0 mi NNE 5.8 mph - N/A   Mostly Cloudy
5:58 AM 66.9 °F - 66.0 °F 97% 30.14 in 10.0 mi NE 4.6 mph - N/A   Partly Cloudy
6:58 AM 66.9 °F - 66.0 °F 97% 30.16 in 10.0 mi NNE 5.8 mph - N/A   Mostly Cloudy
7:58 AM 66.9 °F - 66.9 °F 100% 30.16 in 10.0 mi NE 4.6 mph - N/A   Partly Cloudy
8:58 AM 70.0 °F - 68.0 °F 93% 30.17 in 10.0 mi NE 8.1 mph - N/A   Clear
9:58 AM 73.0 °F - 69.1 °F 87% 30.18 in 10.0 mi NE 6.9 mph - N/A   Overcast
10:58 AM 77.0 °F - 69.1 °F 76% 30.19 in 10.0 mi NNE 6.9 mph - N/A   Mostly Cloudy
11:58 AM 80.1 °F 82.9 °F 69.1 °F 69% 30.17 in 10.0 mi East 6.9 mph - N/A   Clear
12:33 PM 80.1 °F 82.9 °F 69.1 °F 69% 30.16 in 10.0 mi East 9.2 mph - N/A   Overcast
12:58 PM 78.1 °F - 69.1 °F 74% 30.17 in 10.0 mi East 9.2 mph - N/A   Mostly Cloudy
1:58 PM 78.1 °F - 69.1 °F 74% 30.14 in 10.0 mi ESE 9.2 mph - N/A   Clear
2:58 PM 79.0 °F - 69.1 °F 72% 30.15 in 10.0 mi East 6.9 mph - N/A   Scattered Clouds
3:15 PM 80.1 °F 82.9 °F 69.1 °F 69% 30.14 in 10.0 mi ESE 10.4 mph - N/A   Mostly Cloudy
3:24 PM 80.1 °F 82.7 °F 68.0 °F 67% 30.15 in 10.0 mi ESE 10.4 mph - N/A   Scattered Clouds
3:58 PM 78.1 °F - 68.0 °F 71% 30.15 in 10.0 mi ESE 9.2 mph - N/A   Scattered Clouds
4:58 PM 75.0 °F - 70.0 °F 84% 30.16 in 10.0 mi NNE 4.6 mph - N/A   Overcast
5:40 PM 73.0 °F - 71.1 °F 93% 30.16 in 10.0 mi Calm Calm - 0.01 in   Overcast
5:58 PM 73.9 °F - 70.0 °F 87% 30.17 in 10.0 mi ENE 3.5 mph - 0.01 in   Overcast
6:58 PM 73.0 °F - 70.0 °F 90% 30.18 in 10.0 mi NE 4.6 mph - N/A   Overcast
7:58 PM 73.0 °F - 70.0 °F 90% 30.19 in 10.0 mi ENE 4.6 mph - 0.00 in Rain Light Rain
8:34 PM 72.0 °F - 70.0 °F 93% 30.20 in 10.0 mi North 3.5 mph - 0.01 in Rain Light Rain
8:58 PM 71.1 °F - 69.1 °F 93% 30.21 in 10.0 mi NE 6.9 mph - 0.01 in   Scattered Clouds
9:58 PM 71.1 °F - 69.1 °F 93% 30.21 in 10.0 mi NE 4.6 mph - N/A   Partly Cloudy
10:14 PM 70.0 °F - 69.1 °F 97% 30.21 in 10.0 mi NE 4.6 mph - N/A   Mostly Cloudy
10:37 PM 70.0 °F - 69.1 °F 97% 30.21 in 10.0 mi NE 5.8 mph - N/A   Overcast
10:58 PM 69.1 °F - 68.0 °F 96% 30.22 in 10.0 mi NE 5.8 mph - N/A   Overcast
11:58 PM 69.1 °F - 68.0 °F 96% 30.20 in 10.0 mi NE 5.8 mph - N/A   Mostly Cloudy